TimeMDT,TemperatureF,Dew PointF,Humidity,Sea Level PressureIn,VisibilityMPH,Wind Direction,Wind SpeedMPH,Gust SpeedMPH,PrecipitationIn,Events,Conditions,WindDirDegrees,DateUTC
12:53 AM,57.9,50.0,75,30.13,10.0,Calm,Calm,-,N/A,,Overcast,0,2012-09-28 06:53:00
1:53 AM,57.0,51.1,81,30.14,10.0,WNW,3.5,-,N/A,,Overcast,290,2012-09-28 07:53:00
2:53 AM,57.0,52.0,83,30.14,10.0,South,3.5,-,N/A,,Overcast,190,2012-09-28 08:53:00
3:53 AM,55.0,52.0,89,30.16,10.0,WSW,3.5,-,N/A,,Overcast,240,2012-09-28 09:53:00
4:53 AM,55.9,52.0,87,30.16,10.0,Calm,Calm,-,N/A,,Overcast,0,2012-09-28 10:53:00
5:53 AM,53.1,48.9,86,30.16,10.0,NNE,3.5,-,N/A,,Mostly Cloudy,20,2012-09-28 11:53:00
6:53 AM,48.9,46.9,93,30.19,5.0,North,4.6,-,N/A,,Clear,10,2012-09-28 12:53:00
7:53 AM,48.9,46.9,93,30.20,3.0,Calm,Calm,-,N/A,,Clear,0,2012-09-28 13:53:00
8:53 AM,55.9,52.0,87,30.21,7.0,NNW,3.5,-,N/A,,Partly Cloudy,340,2012-09-28 14:53:00
9:53 AM,62.1,48.0,60,30.20,10.0,West,3.5,-,N/A,,Clear,270,2012-09-28 15:53:00
10:53 AM,66.9,48.9,52,30.18,10.0,East,4.6,-,N/A,,Clear,100,2012-09-28 16:53:00
11:53 AM,72.0,42.1,34,30.16,10.0,SSE,10.4,-,N/A,,Clear,160,2012-09-28 17:53:00
12:53 PM,73.4,41.0,31,30.19,10.0,SSE,13.8,18.4,N/A,,Clear,150,2012-09-28 18:53:00
1:53 PM,73.9,39.9,29,30.11,10.0,SSE,11.5,20.7,N/A,,Scattered Clouds,150,2012-09-28 19:53:00
2:53 PM,72.0,42.1,34,30.10,10.0,ESE,8.1,-,N/A,,Scattered Clouds,120,2012-09-28 20:53:00
3:53 PM,73.0,42.1,33,30.09,10.0,ESE,6.9,-,N/A,,Overcast,110,2012-09-28 21:53:00
4:53 PM,73.0,42.1,33,30.07,10.0,SE,10.4,-,N/A,,Clear,140,2012-09-28 22:53:00
5:53 PM,71.1,41.0,34,30.09,10.0,SSE,10.4,-,N/A,,Clear,150,2012-09-28 23:53:00
6:53 PM,63.0,41.0,45,30.12,10.0,South,4.6,-,N/A,,Clear,170,2012-09-29 00:53:00
7:53 PM,55.9,39.9,55,30.14,10.0,SSE,5.8,-,N/A,,Clear,160,2012-09-29 01:53:00
8:53 PM,55.0,39.9,57,30.14,10.0,South,5.8,-,N/A,,Clear,170,2012-09-29 02:53:00
9:53 PM,55.9,42.1,60,30.14,10.0,South,8.1,-,N/A,,Clear,170,2012-09-29 03:53:00
10:53 PM,55.0,44.1,67,30.14,10.0,SSW,6.9,-,N/A,,Clear,200,2012-09-29 04:53:00
11:53 PM,52.0,44.1,74,30.14,10.0,South,4.6,-,N/A,,Clear,190,2012-09-29 05:53:00